Location: Góry Miechowskie
(50.3599°N, 20.1803°E)
Time: 20:15:07
(UTC+00:00)

Cosmos 1821 Rocket - Visible Passes

Search period start: 19 September 2024 00:00
Search period end: 29 September 2024 00:00
Orbit: 943 x 1005 km, 82.9° (Epoch: 19 September)

Date Brightness Start Highest point End Pass type
(mag) Time Alt. Az. Time Alt. Az. Time Alt. Az.
19 Sep 4.1 00:57:25 10° NNW 01:02:37 61° NW 01:02:37 61° NW visible
19 Sep 5.7 02:45:17 10° NW 02:47:12 12° WNW 02:47:12 12° WNW visible
19 Sep 5.1 23:37:14 10° N 23:42:22 37° ENE 23:42:22 37° ENE visible
20 Sep 4.7 01:22:38 10° NNW 01:26:58 37° WNW 01:26:58 37° WNW visible
20 Sep 6.3 22:18:36 10° NNE 22:21:21 13° NE 22:22:09 13° ENE visible
21 Sep 4.6 00:02:02 10° N 00:06:45 50° NNE 00:06:45 50° NNE visible
21 Sep 5.3 01:48:09 10° NNW 01:51:21 22° WNW 01:51:21 22° WNW visible
21 Sep 5.9 22:42:27 10° NNE 22:46:34 21° NE 22:46:34 21° NE visible
22 Sep 4.7 00:27:00 10° NNW 00:31:10 46° NNW 00:31:10 46° NNW visible
22 Sep 5.8 02:14:14 10° NW 02:15:46 13° WNW 02:15:46 13° WNW visible
22 Sep 5.5 23:06:57 10° N 23:11:01 30° NE 23:11:01 30° NE visible
23 Sep 5.0 00:52:10 10° NNW 00:55:37 33° NW 00:55:37 33° NW visible
23 Sep 6.4 21:48:55 10° NE 21:50:44 11° NE 21:50:53 11° NE visible
23 Sep 5.2 23:31:41 10° N 23:35:29 37° NNE 23:35:29 37° NNE visible
24 Sep 5.5 01:17:34 10° NNW 01:20:06 22° NW 01:20:06 22° NW visible
24 Sep 6.1 22:12:18 10° NNE 22:15:23 18° NE 22:15:23 18° NE visible
24 Sep 5.2 23:56:36 10° N 23:59:59 35° N 23:59:59 35° N visible
25 Sep 5.9 01:43:23 10° NW 01:44:36 14° NW 01:44:36 14° NW visible
25 Sep 5.8 22:36:40 10° N 22:39:54 24° NE 22:39:54 24° NE visible
26 Sep 5.4 00:21:42 10° NNW 00:24:30 28° NNW 00:24:30 28° NNW visible
26 Sep 5.6 23:01:20 10° N 23:04:26 29° NNE 23:04:26 29° NNE visible
27 Sep 5.7 00:47:00 10° NNW 00:49:03 20° NW 00:49:03 20° NW visible
27 Sep 6.2 21:42:12 10° NNE 21:44:23 15° NE 21:44:23 15° NE visible
27 Sep 5.6 23:26:11 10° N 23:28:59 29° N 23:28:59 29° N visible
28 Sep 6.1 01:12:39 10° NW 01:13:36 13° NW 01:13:36 13° NW visible
28 Sep 6.0 22:06:24 10° N 22:08:57 20° NNE 22:08:57 20° NNE visible
